Погода в Горнозаводске

Россия / Сахалинская область     46°33′38″N   141°50′48″E
темп.,
°C
ветер,
м/с
пор.,
м/с
влажн.,
%
обл.,
%
осадки,
мм/ч
давл.,
гПа
погр.,
м
1 марта, пн
пн123:00+2зюз91583100 0.0 1013453
02:00+2з81283100 0.1 1013674
05:000сз91176100 2.3 1015999
08:00−3сз111354100 0.1 10171241
11:00−5сз12136185 0.1 10191143
14:00−5зсз10116235 0.0 10211295
17:00−7сз10126664 0.0 10221191
20:00−7сз10116596 0.0 10241330
2 марта, вт
вт223:00−7сз786298 0.0 10251219
02:00−7ссз6670100 0.1 10251038
05:00−8ссв5673100 0.3 1024858
08:00−9всв4577100 0.1 1023545
11:00−9в6879100 0.1 1021531
14:00−9всв6774100 0.1 1019813
17:00−8ссв7971100 0.4 1018985
20:00−8ссв7968100 0.0 10191079
3 марта, ср
ср323:00−10ссв91272100 0.1 10191129
02:00−10ссв8117366 0.0 10201101
05:00−11ссв698779 0.5 1022750
08:00−9ссз91082100 1.2 10241387
11:00−9ссз8969100 1.5 10261445
14:00−8зсз5656100 0.1 10271424
17:00−7з555493 0.1 10271151
20:00−6юз78582 0.0 1027969
4 марта, чт
чт423:00−4юз10126715 0.0 10261199
02:00−2ююз131678100 0.1 10231494
05:00−2ююз151991100 1.1 10201415
08:000юз162294100 2.6 10171553
11:00+1юз162297100 5.8 10161294
14:00+2юз131986100 0.6 1015986
17:00+2юз11178898 0.6 1016790
20:00+3юз11178991 0.0 1015748
5 марта, пт
пт523:00+3юз12188896 0.1 1015750
02:00+3юз121890100 0.0 1014726
05:00+3юз111892100 0.4 1011860
08:00+3юз121988100 0.1 1010830
11:00+2юз101590100 0.1 1010639
14:00+2з71187100 0.0 1011581
17:00+1сз7106493 0.1 10131520
20:00−2ссз101161100 0.0 10161230